Weather in Solodniki

Russia / Astrakhan Oblast     48°24′24″N   45°16′45″E
temp.,
°C
wind,
m/s
gust,
m/s
humid.,
%
clouds,
%
prec.,
mm/h
press.,
hPa
HPBL,
m
1 march, mon
mon101:00−1n3582100 0.0 1019469
04:00−3ne2290100 0.1 1020232
07:00−3ne228799 0.0 1021191
10:00−2ne337399 0.0 1023397
13:000n336131 0.0 1024667
16:00+1n345720 0.0 1025806
19:00−2n23670 0.0 102672
22:00−2ne11670 0.0 102723
2 march, tue
tue201:00−2sw11670 0.0 102722
04:00−2wsw34720 0.0 1026138
07:00−2wsw47760 0.0 1025256
10:00−1w697136 0.0 1024776
13:00+3w8115996 0.0 10211084
16:00+3wsw9136698 0.0 10181257
19:00+2wsw71473100 0.0 1016798
22:00+1wsw71585100 0.2 1014778
3 march, wed
wed301:00+1wsw81597100 0.5 1012723
04:00+1wsw71397100 0.8 1010652
07:00+1w5998100 1.3 1009402
10:000nnw5897100 2.6 1010494
13:00+3nw797397 0.1 10111076
16:00+2nw8106697 0.3 10131427
19:000nw61277100 0.3 1015678
22:00−2nw4117467 0.3 1018807
4 march, thu
thu401:00−3nw510740 0.0 1020777
04:00−2w510772 0.0 1021466
07:00−2w510780 0.0 1021393
10:00+1w710700 0.0 1022836
13:00+4w7105925 0.0 10211221
16:00+5wsw7115912 0.0 10191173
19:00+2sw613710 0.0 1018311
22:00+1sw614790 0.0 1018372
5 march, fri
fri501:00+1sw714820 0.0 1017403
04:00+1sw714810 0.0 1017458
07:00+1sw7158347 0.0 1016469
10:00+3sw8137364 0.0 1016630
13:00+7wsw811610 0.0 1016999
16:00+8wsw812550 0.0 10151186
19:00+5wsw49682 0.0 1016190
22:00+3sw597915 0.0 1017176